This is the latest recevied weather packets stored in our database for station/object AC5CM. If no packets are shown the sender has not sent any weather packets the latest 10 day(s).
| Time | Temp. | Humidity | Pressure | Rain* | Wind** | Luminosity | Snow |
|---|---|---|---|---|---|---|---|
| 1777931769 | 26.11° C | 64% | 1012.8 hPa | 0 mm | - | - | - |
| 1777931467 | 26.11° C | 64% | 1013 hPa | 0 mm | - | - | - |
| 1777931163 | 26.11° C | 63% | 1012.8 hPa | 0 mm | - | - | - |
| 1777930859 | 26.11° C | 63% | 1012.8 hPa | 0 mm | - | - | - |
| 1777930556 | 26.11° C | 63% | 1012.9 hPa | 0 mm | - | - | - |
| 1777930253 | 26.11° C | 63% | 1013.3 hPa | 0 mm | - | - | - |
| 1777929948 | 26.11° C | 63% | 1013.2 hPa | 0 mm | - | - | - |
| 1777929646 | 26.11° C | 62% | 1013.2 hPa | 0 mm | - | - | - |
| 1777929343 | 26.67° C | 62% | 1013.2 hPa | 0 mm | - | - | - |
| 1777929040 | 26.67° C | 61% | 1013.3 hPa | 0 mm | - | - | - |
| 1777928737 | 26.67° C | 61% | 1013.4 hPa | 0 mm | - | - | - |
| 1777928434 | 26.67° C | 62% | 1013.6 hPa | 0 mm | - | - | - |
| 1777928132 | 26.67° C | 59% | 1013.5 hPa | 0 mm | - | - | - |
| 1777927829 | 26.67° C | 59% | 1013.5 hPa | 0 mm | - | - | - |
| 1777927527 | 27.22° C | 58% | 1013.4 hPa | 0 mm | - | - | - |
| 1777927226 | 26.67° C | 60% | 1013.6 hPa | 0 mm | - | - | - |
| 1777926923 | 27.78° C | 57% | 1013.7 hPa | 0 mm | - | - | - |
| 1777926621 | 27.22° C | 58% | 1013.5 hPa | 0 mm | - | - | - |
| 1777926316 | 27.22° C | 58% | 1013.7 hPa | 0 mm | - | - | - |
| 1777926013 | 26.67° C | 58% | 1014 hPa | 0 mm | - | - | - |
| 1777925710 | 26.67° C | 58% | 1013.8 hPa | 0 mm | - | - | - |
| 1777925408 | 27.22° C | 58% | 1013.9 hPa | 0 mm | - | - | - |
| 1777925104 | 27.78° C | 55% | 1013.9 hPa | 0 mm | - | - | - |
| 1777924801 | 27.78° C | 55% | 1014 hPa | 0 mm | - | - | - |
| 1777924497 | 27.78° C | 54% | 1014.1 hPa | 0 mm | - | - | - |
* Rain latest hour (hover to see other rain measurements)
** Current wind speed in m/s (hover to see current wind gust speed)